TimeMDT,TemperatureF,Dew PointF,Humidity,Sea Level PressureIn,VisibilityMPH,Wind Direction,Wind SpeedMPH,Gust SpeedMPH,PrecipitationIn,Events,Conditions,WindDirDegrees,DateUTC
12:53 AM,32.0,21.0,64,30.17,10.0,SSW,16.1,24.2,N/A,,Clear,210,2013-11-02 06:53:00
1:53 AM,32.0,21.0,64,30.15,10.0,SSW,21.9,-,N/A,,Clear,210,2013-11-02 07:53:00
2:53 AM,34.0,21.0,59,30.12,10.0,SW,23.0,-,N/A,,Clear,230,2013-11-02 08:53:00
3:53 AM,34.0,19.9,56,30.10,10.0,SW,24.2,28.8,N/A,,Clear,230,2013-11-02 09:53:00
4:53 AM,33.1,19.9,59,30.11,10.0,SW,18.4,-,N/A,,Clear,230,2013-11-02 10:53:00
5:53 AM,35.1,19.0,52,30.12,10.0,SW,20.7,-,N/A,,Clear,230,2013-11-02 11:53:00
6:53 AM,34.0,19.9,56,30.15,10.0,WSW,20.7,-,N/A,,Clear,240,2013-11-02 12:53:00
7:53 AM,34.0,19.0,54,30.15,10.0,SW,18.4,-,N/A,,Clear,220,2013-11-02 13:53:00
8:53 AM,39.0,19.9,46,30.10,10.0,SW,20.7,28.8,N/A,,Clear,220,2013-11-02 14:53:00
9:53 AM,44.1,19.0,37,30.06,10.0,SW,24.2,-,N/A,,Clear,230,2013-11-02 15:53:00
10:53 AM,48.9,18.0,29,30.01,10.0,SW,19.6,-,N/A,,Clear,220,2013-11-02 16:53:00
11:53 AM,52.0,14.0,22,29.97,10.0,SW,21.9,32.2,N/A,,Clear,230,2013-11-02 17:53:00
12:53 PM,55.0,10.9,17,29.90,10.0,SW,24.2,-,N/A,,Clear,230,2013-11-02 18:53:00
1:53 PM,55.9,10.0,16,29.87,10.0,SW,26.5,38.0,N/A,,Clear,220,2013-11-02 19:53:00
2:53 PM,55.9,10.0,16,29.81,10.0,SW,26.5,39.1,N/A,,Clear,230,2013-11-02 20:53:00
3:53 PM,57.0,6.1,13,29.78,10.0,SW,26.5,32.2,N/A,,Clear,230,2013-11-02 21:53:00
4:53 PM,52.0,14.0,22,29.79,10.0,SSW,20.7,27.6,N/A,,Clear,210,2013-11-02 22:53:00
5:53 PM,46.0,15.1,29,29.79,10.0,SW,20.7,-,N/A,,Clear,220,2013-11-02 23:53:00
6:53 PM,44.1,14.0,30,29.81,10.0,SW,19.6,-,N/A,,Clear,220,2013-11-03 00:53:00
7:53 PM,42.1,12.0,29,29.82,10.0,WSW,10.4,-,N/A,,Clear,250,2013-11-03 01:53:00
8:53 PM,43.0,12.0,28,29.76,10.0,SSW,12.7,-,N/A,,Clear,200,2013-11-03 02:53:00
9:53 PM,45.0,10.0,24,29.71,10.0,SW,15.0,-,N/A,,Clear,230,2013-11-03 03:53:00
10:53 PM,44.1,9.0,24,29.66,10.0,Variable,6.9,-,N/A,,Clear,0,2013-11-03 04:53:00
11:53 PM,39.9,10.0,29,29.65,10.0,SW,12.7,-,N/A,,Clear,230,2013-11-03 05:53:00